User: anonymous   Login
Location: Unspecified
(0.0000°N, 0.0000°E)
Time: 22:20:53
(UTC+00:00)
Language:

OPTUS D3 - Orbit

View from above orbital plane
View from above orbital plane
View from above satellite
View from above satellite

Ground track
Ground track

The orbit data is extracted from the following two-line orbital elements,

1 35756U 09044B   17172.68865470 -.00000153 +00000-0 +00000-0 0  9995
2 35756 000.0271 342.9946 0003243 087.2558 243.7370 01.00270126028658
Epoch (UTC): 21 June 2017 16:31:39
Eccentricity: 0.0003243
inclination: 0.0271°
perigee height: 35773 km
apogee height: 35800 km
right ascension of ascending node: 342.9946°
argument of perigee: 87.2558°
revolutions per day: 1.00270126
mean anomaly at epoch: 243.7370°
orbit number at epoch: 2865

The dashed part of the orbit path shows where the satellite is in the earth's shadow,  

DLR